Regional Weather Roundup
Issued by NWS

Home | Current Version | Previous Version | Graphics & Text | Print | Product List | Glossary On
Versions: 1 2 3 4 5 6 7 8 9 10 11 12 13 14 15 16 17 18 19 20 21 22 23 24 25 26 27 28 29 30 31 32 33 34 35 36 37 38 39 40 41 42 43 44 45 46 47 48 49 50
000
ASUS43 KFSD 110402
RWRSD

WEATHER ROUNDUP FOR SOUTH DAKOTA
NATIONAL WEATHER SERVICE SIOUX FALLS SD
1000 PM CST WED FEB 10 2016

NOTE: "FAIR" INDICATES FEW OR NO CLOUDS BELOW 12,000 FEET WITH NO
SIGNIFICANT WEATHER AND/OR OBSTRUCTIONS TO VISIBILITY.


SDZ001>005-009-010-012>017-110500-
NORTHWEST AND NORTH CENTRAL SOUTH DAKOTA

CITY           SKY/WX    TMP DP  RH WIND       PRES   REMARKS
BUFFALO          N/A     31  28  89 CALM      30.06R
FAITH            N/A     29  22  75 NE6       30.14R WCI  23
MOBRIDGE       CLOUDY    21  15  78 E5        30.15S WCI  15
$$

SDZ012>016-024>037-041>051-057-063-072>074-110500-
SOUTHWEST AND SOUTH CENTRAL SOUTH DAKOTA

CITY           SKY/WX    TMP DP  RH WIND       PRES   REMARKS
RAPID CTY ARPT CLEAR     28  26  92 E8        30.13R WCI  20
PIERRE         CLOUDY    23  20  88 E9        30.16S WCI  13
CUSTER         CLEAR     35  19  52 CALM      30.08F
ELLSWORTH AFB  CLEAR     31  29  92 E6        30.11S WCI  25
PHILIP         CLOUDY    28  24  85 SE8       30.16S WCI  20
PINE RIDGE     CLOUDY    30  25  81 E7        30.11R WCI  23
WINNER         CLOUDY    29  23  78 N14       30.16R WCI  18
$$

SDZ004>011-016>023-039-040-110500-
NORTHEAST SOUTH DAKOTA

CITY           SKY/WX    TMP DP  RH WIND       PRES   REMARKS
ABERDEEN       CLOUDY    14   8  77 NE8       30.23R WCI   3
WATERTOWN      CLOUDY    10   4  76 NE8       30.18R WCI  -2
BROOKINGS      FLURRIES  11   6  81 E10       30.18R WCI  -3
SISSETON         N/A     11   7  84 NW5       30.25S WCI   3
$$

SDZ017-020-022-023-036>040-048>070-110500-
SOUTHEAST SOUTH DAKOTA

CITY           SKY/WX    TMP DP  RH WIND       PRES   REMARKS
SIOUX FALLS    CLOUDY    13   7  77 E9        30.19R WCI   1
HURON          CLOUDY    17  11  77 E6        30.21S WCI   9
CHAMBERLAIN    CLOUDY    23  20  89 NE5       30.17S WCI  17
MITCHELL       CLOUDY    20  14  77 E5        30.21R WCI  13
YANKTON        CLOUDY    18  12  79 NE9       30.19R WCI   6
$$

ABBREVIATIONS USED IN REMARKS
   TC - TEMPERATURE IN CELSIUS
  WCI - WIND CHILL INDEX
   HX - HEAT INDEX
  VSB - VISIBILITY




USA.gov is the U.S. government's official web portal to all federal, state and local government web resources and services.